DW8209 Gubbio IT current weather conditions

sailwx.info

Wind from 091 at 1 knots gusting 2

Air temperature 20.0° C
Dewpoint 18.1° C

Last reported at 2014-Jul-24 15:42 UTC.
Time now 2014-Jul-24 17:00 UTC

Location: N 43°19' E 012°34'.
View on Google Maps.

See reports from other nearby stations

  
Tides and Currents Weather Stations Pressure Air Temp Water Temp Dewpoint Dewpoint Depression Visibility Wind Speed Wind Dir Waves Ship Positions
date/time (UTC)wind fromknots sea level pressurealtimeterstation pressurevisibilityair tempwater tempwave heightnotes
2014-Jul-24 15:42 091 1 gusting 2 20.0
2014-Jul-24 15:27 322 19.4
2014-Jul-24 15:12 278 20.0
2014-Jul-24 14:57 276 20.0
2014-Jul-24 14:42 266 20.0
2014-Jul-24 14:27 075 0 gusting 1 20.6
2014-Jul-24 14:11 120 21.1
2014-Jul-24 13:56 120 20.6
2014-Jul-24 13:41 333 20.6
2014-Jul-24 13:26 334 0 gusting 1 20.6
2014-Jul-24 13:11 011 1 gusting 3 20.0
2014-Jul-24 12:56 026 1 gusting 3 20.0
2014-Jul-24 12:41 159 0 gusting 6 20.0
2014-Jul-24 12:26 187 2 gusting 9 20.0
2014-Jul-24 12:11 184 2 gusting 7 21.1
2014-Jul-24 11:56 224 6 gusting 14 23.3
2014-Jul-24 11:41 221 0 gusting 5 25.6
2014-Jul-24 11:26 132 0 gusting 3 26.7
2014-Jul-24 11:11 138 0 gusting 5 26.7
2014-Jul-24 10:56 203 1 gusting 6 26.1
2014-Jul-24 10:41 124 1 gusting 6 26.7
2014-Jul-24 10:26 233 3 gusting 6 26.1
2014-Jul-24 10:11 125 1 gusting 5 26.1
2014-Jul-24 09:56 233 2 gusting 6 25.6
2014-Jul-24 09:40 170 1 gusting 6 25.0
2014-Jul-24 09:25 173 3 gusting 6 24.4
2014-Jul-24 09:10 103 0 gusting 6 25.0
2014-Jul-24 08:55 110 2 gusting 5 24.4
2014-Jul-24 08:40 127 5 gusting 6 23.9
2014-Jul-24 08:26 042 0 gusting 5 23.3
2014-Jul-24 08:10 077 1 gusting 3 22.8
2014-Jul-24 07:55 193 0 gusting 3 22.8
2014-Jul-24 07:40 187 1 gusting 2 22.2
2014-Jul-24 07:25 316 21.7
2014-Jul-24 07:10 031 20.6
2014-Jul-24 06:55 271 20.0
2014-Jul-24 06:40 260 19.4
2014-Jul-24 06:25 300 18.3
2014-Jul-24 06:10 210 17.8
2014-Jul-24 05:55 197 16.7
2014-Jul-24 04:25 282 13.3
2014-Jul-24 04:10 284 12.8
2014-Jul-24 03:55 284 12.8
2014-Jul-24 03:40 269 13.3
2014-Jul-24 03:25 041 0 gusting 0 13.3
2014-Jul-24 03:10 092 13.3
2014-Jul-24 02:55 316 0 gusting 1 13.9
2014-Jul-24 02:40 336 13.9
2014-Jul-24 02:25 318 0 gusting 1 13.9
2014-Jul-24 02:10 262 13.9
2014-Jul-24 01:55 287 13.9
2014-Jul-24 01:40 249 13.9
2014-Jul-24 01:25 284 14.4
2014-Jul-24 01:10 287 13.9
2014-Jul-24 00:55 285 14.4
2014-Jul-24 00:40 231 14.4
2014-Jul-24 00:25 322 14.4
2014-Jul-24 00:09 269 14.4
2014-Jul-23 23:54 229 0 gusting 2 15.0
2014-Jul-23 23:39 300 15.0
2014-Jul-23 23:24 351 15.0
2014-Jul-23 23:09 295 15.6
2014-Jul-23 22:54 264 15.6
2014-Jul-23 22:39 301 16.1
2014-Jul-23 22:24 043 16.1
2014-Jul-23 22:09 015 16.1
2014-Jul-23 21:54 015 16.7
2014-Jul-23 21:39 096 16.7
2014-Jul-23 21:24 071 17.2
2014-Jul-23 21:09 167 17.2
2014-Jul-23 20:54 166 17.8
2014-Jul-23 20:39 165 18.3
2014-Jul-23 20:24 139 17.8
2014-Jul-23 20:09 158 18.9
2014-Jul-23 19:54 176 1 gusting 1 19.4
2014-Jul-23 19:39 172 0 gusting 1 20.0
2014-Jul-23 19:23 142 20.0
2014-Jul-23 19:08 305 0 gusting 1 21.1
2014-Jul-23 18:53 207 21.1
2014-Jul-23 18:38 255 22.2
2014-Jul-23 18:23 240 0 gusting 4 22.2
2014-Jul-23 18:08 277 0 gusting 4 22.8
2014-Jul-23 17:53 351 5 gusting 8 23.3
2014-Jul-23 17:38 019 3 gusting 8 23.9
2014-Jul-23 17:23 007 6 gusting 8 24.4
2014-Jul-23 17:08 037 5 gusting 8 24.4
2014-Jul-23 16:53 042 5 gusting 7 25.0
2014-Jul-23 16:38 360 1 gusting 4 25.0
2014-Jul-23 16:23 023 4 gusting 6 25.0
2014-Jul-23 16:08 004 2 gusting 4 25.6
2014-Jul-23 15:53 007 3 gusting 6 25.6
2014-Jul-23 15:38 016 3 gusting 7 25.6
2014-Jul-23 15:23 036 6 gusting 8 25.6
2014-Jul-23 15:08 356 2 gusting 7 25.6
2014-Jul-23 14:53 019 5 gusting 6 25.6
2014-Jul-23 14:38 025 2 gusting 6 25.0
2014-Jul-23 14:23 053 0 gusting 3 25.0
2014-Jul-23 14:08 064 3 gusting 10 25.0
2014-Jul-23 13:53 068 3 gusting 6 25.6
2014-Jul-23 13:38 321 3 gusting 8 25.0
2014-Jul-23 13:23 293 3 gusting 6 25.0
2014-Jul-23 13:08 044 0 gusting 7 25.0
2014-Jul-23 12:52 034 4 gusting 9 25.0
2014-Jul-23 12:37 291 1 gusting 6 24.4
2014-Jul-23 12:22 346 3 gusting 6 23.9
2014-Jul-23 12:07 015 6 gusting 7 24.4
2014-Jul-23 11:52 012 5 gusting 6 24.4
2014-Jul-23 11:37 047 3 gusting 5 23.9
2014-Jul-23 11:22 312 3 gusting 6 23.9
2014-Jul-23 11:07 020 2 gusting 10 23.3
2014-Jul-23 10:52 013 3 gusting 7 23.3
2014-Jul-23 10:37 008 4 gusting 6 23.3
2014-Jul-23 10:22 006 2 gusting 5 22.8
2014-Jul-23 10:07 335 4 gusting 7 22.2
2014-Jul-23 09:52 338 5 gusting 8 22.8
2014-Jul-23 09:37 321 0 gusting 4 23.9
2014-Jul-23 09:22 113 0 gusting 4 23.3
2014-Jul-23 09:07 044 2 gusting 5 23.3
2014-Jul-23 08:52 027 4 gusting 6 22.8
2014-Jul-23 08:37 343 3 gusting 7 22.2
2014-Jul-23 08:22 327 3 gusting 7 22.2
2014-Jul-23 08:07 335 5 gusting 8 22.2
2014-Jul-23 07:52 127 0 gusting 4 21.7
2014-Jul-23 07:37 094 1 gusting 3 21.1
2014-Jul-23 07:22 088 2 gusting 4 20.6
2014-Jul-23 07:07 175 0 gusting 3 20.6
2014-Jul-23 06:52 273 0 gusting 2 18.9
2014-Jul-23 06:37 270 2 gusting 4 18.3
2014-Jul-23 06:22 238 18.9
2014-Jul-23 06:07 198 17.8
2014-Jul-23 05:52 194 17.2
2014-Jul-23 05:37 207 16.7
2014-Jul-23 05:21 183 0 gusting 2 16.1
2014-Jul-23 05:06 266 16.1
2014-Jul-23 04:51 191 16.1
2014-Jul-23 04:36 306 16.1
2014-Jul-23 04:21 049 16.7
2014-Jul-23 04:06 281 16.7
2014-Jul-23 03:51 027 16.1
2014-Jul-23 03:36 032 16.7
2014-Jul-23 03:21 270 16.7
2014-Jul-23 03:06 293 0 gusting 2 16.7
2014-Jul-23 02:51 320 17.2
2014-Jul-23 02:36 283 17.2
2014-Jul-23 02:21 281 17.2
2014-Jul-23 02:06 281 17.2
2014-Jul-23 01:52 294 0 gusting 1 17.2
2014-Jul-23 01:36 223 17.2
2014-Jul-23 01:21 189 17.2
2014-Jul-23 01:06 233 17.2
2014-Jul-23 00:51 205 17.2
2014-Jul-23 00:36 259 17.2
2014-Jul-23 00:21 307 0 gusting 1 17.2
2014-Jul-23 00:06 300 0 gusting 3 17.2
2014-Jul-22 23:51 295 0 gusting 2 17.2
2014-Jul-22 23:36 300 0 gusting 3 17.2
2014-Jul-22 23:21 320 0 gusting 2 17.2
2014-Jul-22 23:06 294 17.2
2014-Jul-22 22:51 288 1 gusting 3 17.2
2014-Jul-22 22:36 319 1 gusting 2 17.2
2014-Jul-22 22:21 307 1 gusting 2 17.8
2014-Jul-22 22:06 291 0 gusting 2 18.3
2014-Jul-22 21:51 283 0 gusting 2 18.9
2014-Jul-22 21:36 307 0 gusting 1 18.9
2014-Jul-22 21:21 304 18.9
2014-Jul-22 21:06 338 18.9
2014-Jul-22 20:51 329 0 gusting 1 18.9
2014-Jul-22 20:36 312 0 gusting 3 19.4
2014-Jul-22 20:20 283 0 gusting 4 20.0
2014-Jul-22 20:05 284 0 gusting 2 20.0
2014-Jul-22 19:50 231 0 gusting 2 20.0
2014-Jul-22 19:35 330 20.0
2014-Jul-22 19:20 315 20.6
2014-Jul-22 19:05 312 0 gusting 2 20.6
2014-Jul-22 18:50 351 1 gusting 3 20.6
2014-Jul-22 18:35 008 1 gusting 4 20.6
2014-Jul-22 18:20 312 0 gusting 2 20.6
2014-Jul-22 18:05 343 21.1
2014-Jul-22 17:50 020 2 gusting 4 21.1
2014-Jul-22 17:35 045 0 gusting 2 21.1
2014-Jul-22 17:20 044 1 gusting 2 21.7
2014-Jul-22 17:05 066 2 gusting 6 21.7